Home   Weather   Nuuk   Past weeks
Flag for Greenland

Past Weather in Nuuk, Greenland — Yesterday and Last 2 Weeks

Now
46 °F

Partly sunny.


Feels Like: 38 °F
Forecast: 51 / 46 °F
Wind: 25 mph from South

Location: Godthaab / Nuuk

Current Time: Jul 17, 2019 at 5:09:08 am

Latest Report: Jul 17, 2019 at 3:50 am


Visibility: 4 mi

Pressure: 29.80 "Hg

Humidity: 93%

Dew Point: 45 °F

Location of NuukLocation

Past Weather in Nuuk — Graph

°F

Nuuk Temperature Yesterday

Maximum temperature yesterday: 54 °F (at 9:50 am)
Minimum temperature yesterday: 45 °F (at 1:50 am)
Average temperature yesterday: 48 °F

High & Low Weather Summary for the Past Weeks

 TemperatureHumidityPressure
High72 °F (Jul 8, 3:50 pm)100% (Jul 9, 11:50 pm)30.21 "Hg (Jul 9, 11:50 pm)
Low37 °F (Jul 2, 3:50 am)25% (Jul 8, 4:50 pm)29.68 "Hg (Jul 16, 8:50 pm)
Average50 °F73%29.95 "Hg
* Reported Jul 2 3:50 am — Jul 17 3:50 am, Nuuk. Weather by CustomWeather, © 2019

Note: Actual official high and low records may vary slightly from our data, if they occured in-between our weather recording intervals... More about our weather records

Advertising

Nuuk Weather History for the Previous 24 Hours

Scroll right to see more
 ConditionsComfort  
Time TempWeatherWind HumidityBarometerVisibility
3:50 am
Wed, Jul 17
46 °FPartly sunny.25 mph93%29.80 "Hg4 mi
2:50 am46 °FSprinkles. Fog.29 mph93%29.80 "Hg2 mi
1:50 am45 °FLight rain. Passing clouds.26 mph100%29.80 "Hg3 mi
12:50 am45 °FLight rain. Passing clouds.30 mph100%29.80 "Hg3 mi
11:50 pm
Tue, Jul 16
45 °FLight rain. Partly cloudy.38 mph100%29.77 "Hg4 mi
10:50 pm45 °FRain. Broken clouds.41 mph100%29.71 "Hg4 mi
9:50 pm46 °FRain. Cloudy.40 mph93%29.68 "Hg2 mi
8:50 pm46 °FRain. More clouds than sun.43 mph93%29.68 "Hg4 mi
7:50 pm46 °FRain showers. More clouds than sun.41 mph93%29.71 "Hg4 mi
6:50 pm48 °FRain showers. Cloudy.31 mph94%29.71 "Hg4 mi
6:20 pm48 °FRain showers. Cloudy.26 mph94%29.71 "Hg4 mi
5:50 pm48 °FRain showers. Cloudy.25 mph94%29.74 "HgN/A
4:50 pm48 °FRain. Broken clouds.28 mph94%29.71 "HgN/A
3:50 pm50 °FLight rain. Partly sunny.22 mph88%29.74 "HgN/A
2:50 pm50 °FPartly sunny.17 mph76%29.74 "HgN/A
1:50 pm50 °FPartly sunny.15 mph76%29.74 "HgN/A
12:50 pm54 °FPartly sunny.13 mph67%29.77 "HgN/A
11:50 am54 °FPartly sunny.12 mph67%29.77 "HgN/A
10:50 am52 °FPartly sunny.7 mph72%29.80 "HgN/A
9:50 am54 °FPartly sunny.6 mph67%29.80 "HgN/A
8:50 am48 °FRain. Light fog.5 mph82%29.83 "HgN/A
7:50 am48 °FRain. Light fog.5 mph82%29.83 "HgN/A
6:50 am48 °FFog.3 mph82%29.83 "HgN/A
5:50 am48 °FPassing clouds.3 mph76%29.86 "HgN/A
Weather by CustomWeather, © 2019

See weather overview